Oldest pages

Jump to navigation Jump to search

Showing below up to 100 results in range #1 to #100.

View (previous 100 | next 100) (20 | 50 | 100 | 250 | 500)

  1. Health and Safety Laboratory‏‎ (14:35, 19 February 2008)
  2. Glossary-url‏‎ (18:49, 19 February 2008)
  3. Contributing‏‎ (10:03, 20 February 2008)
  4. Podcasts-url‏‎ (12:05, 20 February 2008)
  5. Stat-of-the-Art Review: Combustion‏‎ (14:25, 20 May 2008)
  6. Magnox Electric‏‎ (10:57, 21 May 2008)
  7. EDF - R&D Division‏‎ (10:59, 21 May 2008)
  8. Fluent Europe Ltd‏‎ (11:01, 21 May 2008)
  9. British Nuclear Fuels (BNFL)‏‎ (13:17, 21 May 2008)
  10. Martin-Luther-Universitat Halle-Wittenberg‏‎ (13:19, 21 May 2008)
  11. Rolls-Royce Marine Power, Engineering & Technology Division‏‎ (13:19, 21 May 2008)
  12. British Energy‏‎ (13:20, 21 May 2008)
  13. State-of-the-Art Review: Editing Turbomachinery, Internal Flow‏‎ (14:25, 21 May 2008)
  14. Turbomachinery, Internal Flow‏‎ (16:20, 21 May 2008)
  15. NUMECA International‏‎ (10:09, 22 May 2008)
  16. SNECMA Moteurs‏‎ (10:10, 22 May 2008)
  17. AEA Technology‏‎ (10:10, 22 May 2008)
  18. NTUA‏‎ (10:11, 22 May 2008)
  19. Vattenfall Utveckling AB‏‎ (10:12, 22 May 2008)
  20. MAN Turbomaschinen AG Schweiz‏‎ (10:13, 22 May 2008)
  21. Sulzer Innotec AG‏‎ (10:13, 22 May 2008)
  22. Czech Academy of Sciences‏‎ (10:15, 22 May 2008)
  23. Rolls Royce Deutschland‏‎ (10:48, 22 May 2008)
  24. ABB Alstom Power UK‏‎ (10:49, 22 May 2008)
  25. Cranfield University‏‎ (08:00, 23 May 2008)
  26. University of Surrey‏‎ (08:01, 23 May 2008)
  27. ALSTOM Power (Switzerland) Ltd‏‎ (08:02, 23 May 2008)
  28. CEA / DRN / Department de Thermohydraulique‏‎ (08:50, 23 May 2008)
  29. Fachhochschule Niederrhein‏‎ (08:51, 23 May 2008)
  30. Arup‏‎ (10:03, 30 May 2008)
  31. Mott MacDonald Ltd‏‎ (10:05, 30 May 2008)
  32. CIMNE‏‎ (10:05, 30 May 2008)
  33. University of Southampton‏‎ (10:11, 30 May 2008)
  34. ESDU‏‎ (14:52, 2 June 2008)
  35. Universita di Roma 'La Sapienza'‏‎ (14:54, 2 June 2008)
  36. NCSR Demokritos‏‎ (08:29, 3 June 2008)
  37. CEA Saclay, DMT‏‎ (08:33, 3 June 2008)
  38. HR Wallingford Ltd‏‎ (08:34, 3 June 2008)
  39. Advice‏‎ (08:55, 4 June 2008)
  40. RENAULT‏‎ (09:37, 4 June 2008)
  41. Computational Dynamics Ltd‏‎ (09:39, 4 June 2008)
  42. Atkins‏‎ (09:40, 4 June 2008)
  43. Universität Karlsruhe‏‎ (09:41, 4 June 2008)
  44. CIRA‏‎ (09:46, 4 June 2008)
  45. Qinetiq‏‎ (09:47, 4 June 2008)
  46. SNPE Propulsion‏‎ (09:47, 4 June 2008)
  47. Université de Poitiers‏‎ (09:48, 4 June 2008)
  48. CFS Engineering SA‏‎ (09:49, 4 June 2008)
  49. Universita di Firenze‏‎ (09:49, 4 June 2008)
  50. Technical University of Czestochowa‏‎ (09:50, 4 June 2008)
  51. MTU Aero Engines‏‎ (09:50, 4 June 2008)
  52. Vrije Universiteit Brussel‏‎ (09:51, 4 June 2008)
  53. Aero Acoustic Test‏‎ (09:10, 15 August 2008)
  54. DOAP’s‏‎ (09:32, 3 September 2008)
  55. DOAP‏‎ (10:58, 3 September 2008)
  56. (DOAP)‏‎ (16:29, 10 September 2008)
  57. Qulaity Review AC6-04‏‎ (10:15, 2 October 2008)
  58. DOAPs‏‎ (12:23, 13 February 2009)
  59. David Fowler Feedback‏‎ (12:14, 17 February 2009)
  60. ERC MW Info‏‎ (14:38, 20 February 2009)
  61. Test LockDown‏‎ (17:09, 24 February 2009)
  62. Test LD AA‏‎ (17:14, 24 February 2009)
  63. Test LD RAE‏‎ (17:15, 24 February 2009)
  64. Test LD L1T2‏‎ (17:18, 24 February 2009)
  65. Test Let1‏‎ (18:41, 12 March 2009)
  66. Test ACA380‏‎ (09:37, 13 March 2009)
  67. Description AC 1 1‏‎ (10:35, 13 March 2009)
  68. Test AC CFDSim‏‎ (12:02, 14 March 2009)
  69. Test AC1‏‎ (19:48, 14 March 2009)
  70. TopicTest‏‎ (08:58, 15 March 2009)
  71. Abstract AC 2 02‏‎ (18:08, 15 March 2009)
  72. Abstract AC 123 01‏‎ (18:20, 15 March 2009)
  73. Terms and Conditions‏‎ (18:26, 15 March 2009)
  74. Abstract AC 123 02‏‎ (18:29, 15 March 2009)
  75. Dave Test Topic‏‎ (12:20, 16 March 2009)
  76. Abstract AC 123 03‏‎ (12:22, 16 March 2009)
  77. January 2009‏‎ (12:40, 16 March 2009)
  78. Abstract AC 123 05‏‎ (19:13, 18 March 2009)
  79. Abstract AC 123 08‏‎ (11:13, 19 March 2009)
  80. CFD Simulations AC 123 08‏‎ (11:17, 19 March 2009)
  81. Test Data AC 123 08‏‎ (11:18, 19 March 2009)
  82. Evaluation AC 123 08‏‎ (11:22, 19 March 2009)
  83. Related UFRs AC 123 08‏‎ (11:24, 19 March 2009)
  84. Best Practice AC 123 08‏‎ (11:27, 19 March 2009)
  85. Best Practice Advice AC 123 08‏‎ (11:36, 19 March 2009)
  86. Description AC 123 10‏‎ (11:54, 19 March 2009)
  87. CFD Simulations AC 123 10‏‎ (11:55, 19 March 2009)
  88. Test Data AC 123 10‏‎ (11:56, 19 March 2009)
  89. Related UFRs AC 123 10‏‎ (12:00, 19 March 2009)
  90. Abstract AC 123 11‏‎ (13:34, 19 March 2009)
  91. March 2009‏‎ (15:50, 19 March 2009)
  92. February 2009‏‎ (15:53, 19 March 2009)
  93. Abstract AC 123 12‏‎ (16:07, 19 March 2009)
  94. Description AC 123 12‏‎ (16:08, 19 March 2009)
  95. Ed Notes Cal‏‎ (15:00, 23 March 2009)
  96. Ercoftac Editorial Page/January 2009‏‎ (16:06, 23 March 2009)
  97. Ercoftac Editorial Page/Thursday January‏‎ (16:13, 23 March 2009)
  98. Description AC 51 57‏‎ (21:58, 16 April 2009)
  99. Abstract AC 51 57‏‎ (21:58, 16 April 2009)
  100. Evaluation AC 51 57‏‎ (21:58, 16 April 2009)

View (previous 100 | next 100) (20 | 50 | 100 | 250 | 500)